Location: Peterborough
(44.3091°N, 78.3197°W)
Time: 18:40:42
(UTC-04:00)

A-11 Canister half - Pass Details

Date: 25 March 2023
Orbit: 1526 x 1682 km, 47.3° (Epoch: 05 June)

Event Time Altitude Azimuth Distance (km) Brightness Sun altitude
Rises 22:42:31 0° 292° (WNW) 4,857 12.6 -32.0°
Reaches altitude 10° 22:45:42 10° 291° (WNW) 3,848 11.8 -32.4°
Maximum altitude 22:55:23 71° 210° (SSW) 1,654 8.9 -33.6°
Enters shadow 22:56:03 69° 183° (S) 1,669 8.9 -33.7°
